Regional Weather Roundup
Issued by NWS

Home | Current Version | Previous Version | Graphics & Text | Print | Product List | Glossary On
Versions: 1 2 3 4 5 6 7 8 9 10 11 12 13 14 15 16 17 18 19 20 21 22 23 24 25 26 27 28 29 30 31 32 33 34 35 36 37 38 39 40 41 42 43 44 45 46 47 48 49 50
000
ASUS45 KABQ 300810
RWRNM
WEATHER ROUNDUP FOR NEW MEXICO
NATIONAL WEATHER SERVICE ALBUQUERQUE NM
200 AM MDT SAT AUG 30 2014

NOTE: "FAIR" MEANS FEW OR NO CLOUDS BELOW 12,000 FEET AGL WITH NO
       SIGNIFICANT WEATHER OR OBSTRUCTIONS TO VISION.

      THIS PRODUCT IS RELEASED AS TWO VERSIONS.  ONE VERSION NEAR
      THE TOP OF THE HOUR CONTAINING PRELIMINARY DATA FROM ALBUQUERQUE
      AND OTHER STATIONS.  A FINAL VERSION WITH ADDITIONAL DATA IS
      ISSUED ABOUT 10 MINUTES AFTER THE HOUR.

NMZ501-503-504-510>518-300900-
NORTHWEST PLATEAU/NORTHCENTRAL MOUNTAINS

CITY           SKY/WX    TMP DP  RH WIND       PRES   REMARKS
FARMINGTON     CLEAR     59  42  53 NE8       30.13S
LOS ALAMOS     CLEAR     61  32  34 SW6       30.27S
SANTA FE       CLEAR     61  42  49 SE7       30.21F
ANGEL FIRE     CLOUDY    52  40  64 NE5       30.40F

$$
NMZ402-403-502-505>509-300900-
WESTCENTRAL MOUNTAINS/SOUTHWEST MOUNTAINS

CITY           SKY/WX    TMP DP  RH WIND       PRES   REMARKS
GALLUP         CLEAR     51  30  44 CALM      30.22S
SILVER CITY    CLEAR     64  39  39 CALM      30.15S

$$
NMZ407-409-411-412-300900-
SOUTHERN DESERTS

CITY           SKY/WX    TMP DP  RH WIND       PRES   REMARKS
LORDSBURG      FAIR      68  43  40 S6        30.06R
DEMING         MOCLDY    70  44  39 N3        30.06R
LAS CRUCES     CLOUDY    72  41  32 CALM      30.08S
HOLLOMAN AFB   PTCLDY    65  48  53 W8        30.05R
ALAMOGORDO     PTCLDY    70  45  40 W13       30.06R
T OR C         PTCLDY    69  49  48 NW6       30.09S

$$
NMZ519>523-300900-
CENTRAL VALLEYS/CENTRAL HIGHLANDS

CITY           SKY/WX    TMP DP  RH WIND       PRES   REMARKS
ALBUQUERQUE    CLEAR     70  42  36 W3        30.14S
DOUBLE EAGLE   CLEAR     60  42  51 CALM      30.18S
MORIARTY ARPT  FAIR      50  46  83 W5        30.23S
CLINES CORNERS CLEAR     60  41  49 S13       30.25F
BELEN          FAIR      58  44  58 CALM      30.14R
SOCORRO        FAIR      64  51  61 W5        30.10S

$$
NMZ524>526-539-540-300900-
SOUTHCENTRAL MOUNTAINS

CITY           SKY/WX    TMP DP  RH WIND       PRES   REMARKS
RUIDOSO        CLEAR     63  45  51 CALM      30.29S

$$
NMZ527>531-300900-
NORTHEAST HIGHLANDS/NORTHEAST PLAINS

CITY           SKY/WX    TMP DP  RH WIND       PRES   REMARKS
LAS VEGAS      MOCLDY    54  43  66 N7        30.29S
RATON          CLOUDY    62  44  51 N9        30.26F
CLAYTON        CLOUDY    65  49  56 NW9       30.17S

$$
NMZ532>537-300900-
EASTCENTRAL PLAINS

CITY           SKY/WX    TMP DP  RH WIND       PRES   REMARKS
TUCUMCARI      PTCLDY    66  41  40 NE3       30.08R
CANNON AFB     CLEAR     65  56  72 SE6       30.11S
CLOVIS AIRPORT   N/A     63  50  63 SW3       30.13S

$$
NMZ028-029-538-300900-
SOUTHEAST PLAINS

CITY           SKY/WX    TMP DP  RH WIND       PRES   REMARKS
ROSWELL        CLEAR     68  54  60 S7        30.05S
CARLSBAD       PTCLDY    76  57  51 S5        30.03S
HOBBS          CLEAR     72  63  73 SE6       30.07F


$$


USA.gov is the U.S. government's official web portal to all federal, state and local government web resources and services.